GW4731 Weather Reports


Display with metric or nautical units.
time (UTC)temp
F
wind
direction
speed
MPH
gust
MPH
rain 1hr
in
rain 24hr
in
rain mn
in
humidity
%
barometer
mb
20260509173717 64 59 4.0 8.0 0.00 0.00 0.00 65 1012.1
20260509173212 64 44 5.0 8.0 0.00 0.00 0.00 64 1012.1
20260509172708 63 48 4.0 4.0 0.00 0.00 0.00 66 1012.2
20260509172205 63 61 4.0 6.0 0.00 0.00 0.00 65 1012.2
20260509171701 63 29 5.0 7.0 0.00 0.00 0.00 64 1012.1
20260509171157 63 23 5.0 8.0 0.00 0.00 0.00 65 1012.5
20260509170654 63 21 5.0 8.0 0.00 0.00 0.00 65 1012.5
20260509170150 63 345 3.0 4.0 0.00 0.00 0.00 65 1012.8
20260509165648 63 357 3.0 6.0 0.00 0.00 0.00 66 1012.8
20260509165144 62 53 3.0 4.0 0.00 0.00 0.00 64 1012.8
20260509164640 62 27 3.0 4.0 0.00 0.00 0.00 66 1012.7
20260509164136 62 15 3.0 6.0 0.00 0.00 0.00 65 1012.8
20260509163634 62 18 4.0 6.0 0.00 0.00 0.00 64 1012.7
20260509163129 62 62 5.0 9.0 0.00 0.00 0.00 65 1012.5
20260509162627 62 54 4.0 9.0 0.00 0.00 0.00 63 1012.5
20260509162123 63 351 8.0 9.0 0.00 0.00 0.00 62 1012.3
20260509161619 63 50 8.0 9.0 0.00 0.00 0.00 63 1012.0
20260509161114 63 33 5.0 9.0 0.00 0.00 0.00 65 1012.0
20260509160611 63 35 6.0 9.0 0.00 0.00 0.00 64 1012.2
20260509160106 63 26 8.0 10.0 0.00 0.00 0.00 63 1012.3
20260509155602 63 42 4.0 8.0 0.00 0.00 0.00 64 1012.5
20260509155058 63 25 4.0 8.0 0.00 0.00 0.00 63 1012.5
20260509154554 62 35 4.0 7.0 0.00 0.00 0.00 64 1012.5
20260509154052 64 49 7.0 8.0 0.00 0.00 0.00 62 1012.5
20260509153549 63 54 5.0 8.0 0.00 0.00 0.00 65 1012.5
20260509153046 63 44 1.0 4.0 0.00 0.00 0.00 63 1012.5
20260509152542 62 51 7.0 8.0 0.00 0.00 0.00 67 1012.6
20260509152040 62 39 4.0 8.0 0.00 0.00 0.00 66 1012.7
20260509151535 62 62 7.0 8.0 0.00 0.00 0.00 66 1012.5
20260509151033 61 59 6.0 8.0 0.00 0.00 0.00 68 1012.7
20260509150530 61 37 4.0 7.0 0.00 0.00 0.00 65 1012.6
20260509150029 61 81 4.0 6.0 0.00 0.00 0.00 66 1012.6
20260509145524 61 71 6.0 8.0 0.00 0.00 0.00 67 1012.7
20260509145019 62 55 6.0 9.0 0.00 0.00 0.00 67 1012.5
20260509144517 62 59 4.0 8.0 0.00 0.00 0.00 66 1012.8
20260509144014 61 40 6.0 7.0 0.00 0.00 0.00 65 1012.9
20260509143510 61 60 4.0 8.0 0.00 0.00 0.00 66 1012.9
20260509143009 60 64 4.0 7.0 0.00 0.00 0.00 67 1012.8
20260509142504 60 51 5.0 6.0 0.00 0.00 0.00 65 1013.0
20260509141959 60 81 3.0 4.0 0.00 0.00 0.00 67 1013.2
20260509141456 59 57 2.0 4.0 0.00 0.00 0.00 68 1013.1
20260509140953 58 33 3.0 3.0 0.00 0.00 0.00 68 1013.3
20260509140449 58 60 2.0 3.0 0.00 0.00 0.00 70 1013.3
20260509135948 58 86 2.0 3.0 0.00 0.00 0.00 69 1013.3
20260509135444 58 96 0.0 1.0 0.00 0.00 0.00 68 1013.2
20260509134942 59 70 1.0 3.0 0.00 0.00 0.00 68 1013.0
20260509134439 59 3 0.0 2.0 0.00 0.00 0.00 70 1013.1
20260509133937 58 38 0.0 1.0 0.00 0.00 0.00 69 1012.8
20260509133433 57 27 2.0 4.0 0.00 0.00 0.00 71 1012.8
20260509132931 57 13 5.0 6.0 0.00 0.00 0.00 70 1012.7
20260509132429 57 27 3.0 4.0 0.00 0.00 0.00 71 1012.7
20260509131926 57 37 3.0 4.0 0.00 0.00 0.00 71 1012.8
20260509131423 57 40 2.0 3.0 0.00 0.00 0.00 72 1012.9
20260509130920 57 4 2.0 2.0 0.00 0.00 0.00 70 1012.9
20260509130415 57 12 3.0 6.0 0.00 0.00 0.00 71 1012.9
20260509125912 57 7 4.0 4.0 0.00 0.00 0.00 71 1013.0
20260509125409 57 19 1.0 4.0 0.00 0.00 0.00 71 1012.8
20260509124905 57 17 4.0 6.0 0.00 0.00 0.00 70 1013.0
20260509124402 56 356 1.0 2.0 0.00 0.00 0.00 71 1013.2
20260509123900 56 15 4.0 4.0 0.00 0.00 0.00 72 1013.0
20260509123357 56 37 1.0 2.0 0.00 0.00 0.00 73 1013.0
20260509122852 56 61 2.0 3.0 0.00 0.00 0.00 73 1013.1
20260509122349 56 12 4.0 6.0 0.00 0.00 0.00 73 1012.8
20260509121846 56 32 6.0 7.0 0.00 0.00 0.00 71 1012.7
20260509121343 56 34 1.0 2.0 0.00 0.00 0.00 73 1013.1
20260509120842 56 38 1.0 2.0 0.00 0.00 0.00 73 1013.0
20260509120339 56 36 2.0 3.0 0.00 0.00 0.00 72 1013.3
20260509115837 56 52 1.0 1.0 0.00 0.00 0.00 73 1013.1
20260509115334 56 28 0.0 1.0 0.00 0.00 0.00 72 1013.3
20260509114831 56 14 0.0 0.0 0.00 0.00 0.00 71 1013.0
20260509114330 56 353 0.0 0.0 0.00 0.00 0.00 71 1013.0
20260509113829 55 29 0.0 0.0 0.00 0.00 0.00 70 1013.0
20260509113325 55 189 0.0 0.0 0.00 0.00 0.00 71 1012.9
20260509112822 55 322 0.0 0.0 0.00 0.00 0.00 72 1013.0
20260509112319 55 346 0.0 1.0 0.00 0.00 0.00 72 1012.9
20260509111816 55 19 2.0 3.0 0.00 0.00 0.00 71 1012.9
20260509111313 53 65 0.0 0.0 0.00 0.00 0.00 75 1012.8
20260509110811 53 65 0.0 0.0 0.00 0.00 0.00 78 1012.7
20260509110307 53 13 0.0 0.0 0.00 0.00 0.00 81 1013.0
20260509105806 53 329 0.0 0.0 0.00 0.00 0.00 79 1012.7
20260509105306 53 329 0.0 0.0 0.00 0.00 0.00 78 1012.7
20260509104759 54 329 0.0 0.0 0.00 0.00 0.00 74 1012.7
20260509104256 54 297 0.0 0.0 0.00 0.00 0.00 71 1012.8
20260509103754 53 297 0.0 0.0 0.00 0.00 0.00 69 1012.5
20260509103251 53 297 0.0 0.0 0.00 0.00 0.00 70 1012.6
20260509102750 54 297 0.0 0.0 0.00 0.00 0.00 71 1012.5
20260509102247 53 297 0.0 0.0 0.00 0.00 0.00 70 1012.4
20260509101743 54 297 0.0 0.0 0.00 0.00 0.00 71 1012.2
20260509101239 54 297 0.0 0.0 0.00 0.00 0.00 69 1012.4
20260509100737 54 297 0.0 0.0 0.00 0.00 0.00 68 1012.2
20260509100234 55 268 0.0 0.0 0.00 0.00 0.00 67 1012.3
20260509095730 55 268 0.0 0.0 0.00 0.00 0.00 63 1012.3
20260509095228 55 268 0.0 0.0 0.00 0.00 0.00 62 1012.2
20260509094725 56 269 0.0 0.0 0.00 0.00 0.00 61 1012.1
20260509094221 55 262 0.0 0.0 0.00 0.00 0.00 61 1012.2
20260509093719 55 250 0.0 0.0 0.00 0.00 0.00 63 1012.0
20260509093216 55 231 0.0 0.0 0.00 0.00 0.00 65 1012.1
20260509092714 55 252 0.0 0.0 0.00 0.00 0.00 63 1012.2
20260509092212 56 229 2.0 2.0 0.00 0.00 0.00 63 1012.1
20260509091710 56 222 2.0 3.0 0.00 0.00 0.00 61 1012.1
20260509091206 56 218 2.0 3.0 0.00 0.00 0.00 61 1012.1
20260509090704 56 229 3.0 3.0 0.00 0.00 0.00 61 1012.1
20260509090201 56 227 3.0 4.0 0.00 0.00 0.00 61 1012.2
20260509085658 56 226 2.0 3.0 0.00 0.00 0.00 62 1012.1
20260509085155 56 220 2.0 3.0 0.00 0.00 0.00 61 1012.2
20260509084652 56 223 3.0 6.0 0.00 0.00 0.00 61 1012.1
20260509084148 56 235 3.0 3.0 0.00 0.00 0.00 61 1012.1
20260509083646 56 230 3.0 3.0 0.00 0.00 0.00 61 1012.3
20260509083142 56 217 2.0 3.0 0.00 0.00 0.00 62 1012.4
20260509082640 56 224 2.0 2.0 0.00 0.00 0.00 62 1012.4
20260509082136 56 220 1.0 3.0 0.00 0.00 0.00 62 1012.4
20260509081633 56 224 2.0 3.0 0.00 0.00 0.00 63 1012.4
20260509081131 56 214 2.0 2.0 0.00 0.00 0.00 64 1012.5
20260509080629 56 218 2.0 2.0 0.00 0.00 0.00 62 1012.2
20260509080127 56 222 2.0 3.0 0.00 0.00 0.00 63 1012.4
20260509075624 55 214 2.0 2.0 0.00 0.00 0.00 65 1012.4
20260509075122 56 222 1.0 2.0 0.00 0.00 0.00 63 1012.3
20260509074618 56 229 2.0 2.0 0.00 0.00 0.00 64 1012.5
20260509074115 55 221 2.0 2.0 0.00 0.00 0.00 65 1012.5
20260509073612 55 238 1.0 2.0 0.00 0.00 0.00 66 1012.4
20260509073108 55 223 1.0 2.0 0.00 0.00 0.00 65 1012.5
20260509072605 55 233 0.0 2.0 0.00 0.00 0.00 65 1012.4
20260509072102 55 235 2.0 3.0 0.00 0.00 0.00 65 1012.5
20260509071558 56 233 2.0 3.0 0.00 0.00 0.00 64 1012.7
20260509071056 56 229 2.0 3.0 0.00 0.00 0.00 64 1012.6
20260509070553 55 224 3.0 3.0 0.00 0.00 0.00 64 1012.5
20260509070049 55 214 2.0 3.0 0.00 0.00 0.00 64 1012.7
20260509065544 55 235 2.0 3.0 0.00 0.00 0.00 64 1012.8
20260509065041 55 219 3.0 4.0 0.00 0.00 0.00 64 1012.8
20260509064538 55 227 3.0 4.0 0.00 0.00 0.00 65 1012.8
20260509064037 56 228 3.0 3.0 0.00 0.00 0.00 64 1012.7
20260509063531 56 228 3.0 4.0 0.00 0.00 0.00 63 1012.9
20260509063029 55 221 2.0 4.0 0.00 0.00 0.00 64 1012.9
20260509062526 55 220 3.0 3.0 0.00 0.00 0.00 66 1012.9
20260509062024 55 219 2.0 3.0 0.00 0.00 0.00 66 1013.0
20260509061520 55 226 1.0 2.0 0.00 0.00 0.00 66 1013.1
20260509061018 54 224 1.0 2.0 0.00 0.00 0.00 68 1013.0
20260509060515 54 238 1.0 2.0 0.00 0.00 0.00 68 1013.1
20260509060011 55 241 1.0 2.0 0.00 0.00 0.00 67 1013.0
20260509055506 55 234 1.0 2.0 0.00 0.00 0.00 66 1013.1
20260509055003 55 228 2.0 3.0 0.00 0.00 0.00 64 1013.3
20260509054459 56 252 2.0 3.0 0.00 0.00 0.00 64 1013.0
20260509053958 55 241 1.0 2.0 0.00 0.00 0.00 64 1013.1
20260509053455 55 244 3.0 3.0 0.00 0.00 0.00 64 1013.1
20260509052952 55 221 3.0 3.0 0.00 0.00 0.00 65 1013.0
20260509052450 55 217 2.0 3.0 0.00 0.00 0.00 65 1013.3
20260509051948 55 257 2.0 3.0 0.00 0.00 0.00 67 1013.0
20260509051445 52 229 2.0 3.0 0.00 0.00 0.00 71 1013.1
20260509050942 51 229 0.0 1.0 0.00 0.00 0.00 77 1013.1
20260509050438 51 245 0.0 0.0 0.00 0.00 0.00 75 1013.0
20260509045935 51 249 0.0 0.0 0.00 0.00 0.00 73 1012.8
20260509045432 51 249 0.0 0.0 0.00 0.00 0.00 72 1013.0
20260509044929 51 263 0.0 0.0 0.00 0.00 0.00 72 1013.2
20260509044427 51 247 0.0 0.0 0.00 0.00 0.00 74 1013.1
20260509043924 50 242 0.0 0.0 0.00 0.00 0.00 76 1013.1
20260509043420 49 235 0.0 0.0 0.00 0.00 0.00 74 1013.2
20260509042915 48 269 0.0 0.0 0.00 0.00 0.00 79 1013.2
20260509042413 48 269 0.0 0.0 0.00 0.00 0.00 78 1013.3
20260509041909 49 269 0.0 0.0 0.00 0.00 0.00 78 1013.1
20260509041406 49 269 0.0 0.0 0.00 0.00 0.00 74 1013.1
20260509040904 50 269 0.0 0.0 0.00 0.00 0.00 74 1013.5
20260509040402 50 269 0.0 0.0 0.00 0.00 0.00 73 1013.4
20260509035858 51 294 0.0 0.0 0.00 0.00 0.00 69 1013.2
20260509035355 53 348 0.0 0.0 0.00 0.00 0.00 67 1013.4
20260509034851 54 311 0.0 1.0 0.00 0.00 0.00 63 1013.5
20260509034349 56 311 0.0 1.0 0.00 0.00 0.00 61 1013.3
20260509033846 56 298 0.0 1.0 0.00 0.00 0.00 56 1013.3
20260509033344 56 260 0.0 0.0 0.00 0.00 0.00 57 1013.2
20260509032840 57 232 1.0 2.0 0.00 0.00 0.00 57 1013.4
20260509032338 57 227 3.0 3.0 0.00 0.00 0.00 58 1013.3
20260509031836 57 216 3.0 3.0 0.00 0.00 0.00 57 1013.2
20260509031332 57 225 2.0 3.0 0.00 0.00 0.00 57 1013.3
20260509030830 55 228 2.0 3.0 0.00 0.00 0.00 59 1013.2
20260509030327 55 223 1.0 2.0 0.00 0.00 0.00 62 1013.3
20260509025824 54 238 0.0 0.0 0.00 0.00 0.00 64 1013.3
20260509025320 52 248 0.0 0.0 0.00 0.00 0.00 66 1013.5
20260509024815 51 232 0.0 0.0 0.00 0.00 0.00 69 1013.5
20260509024312 51 230 0.0 0.0 0.00 0.00 0.00 70 1013.5
20260509023809 52 230 0.0 0.0 0.00 0.00 0.00 68 1013.5
20260509023306 52 230 0.0 0.0 0.00 0.00 0.00 66 1013.7
20260509022802 53 252 0.0 0.0 0.00 0.00 0.00 63 1013.6
20260509022300 54 252 0.0 0.0 0.00 0.00 0.00 61 1013.6
20260509021756 55 251 0.0 0.0 0.00 0.00 0.00 59 1013.7
20260509021254 56 251 0.0 0.0 0.00 0.00 0.00 55 1013.5
20260509020751 57 257 0.0 0.0 0.00 0.00 0.00 54 1013.7
20260509020249 57 257 0.0 0.0 0.00 0.00 0.00 53 1013.4
20260509015747 58 225 0.0 0.0 0.00 0.00 0.00 53 1013.5
20260509015245 58 162 0.0 1.0 0.00 0.00 0.00 52 1013.3
20260509014741 58 134 0.0 1.0 0.00 0.00 0.00 51 1013.3
20260509014238 60 193 0.0 1.0 0.00 0.00 0.00 50 1013.4
20260509013734 60 168 0.0 1.0 0.00 0.00 0.00 49 1013.3
20260509013230 60 149 0.0 2.0 0.00 0.00 0.00 49 1013.7
20260509012727 59 161 0.0 0.0 0.00 0.00 0.00 50 1013.6
20260509012223 59 122 0.0 0.0 0.00 0.00 0.00 50 1013.5
20260509011721 60 171 0.0 0.0 0.00 0.00 0.00 49 1013.3
20260509011219 60 142 0.0 0.0 0.00 0.00 0.00 49 1013.3
20260509010716 60 138 0.0 0.0 0.00 0.00 0.00 48 1013.3
20260509010212 60 180 0.0 1.0 0.00 0.00 0.00 50 1013.2
20260509005710 60 208 1.0 2.0 0.00 0.00 0.00 50 1013.2
20260509005207 61 171 1.0 1.0 0.00 0.00 0.00 49 1013.4
20260509004702 61 193 0.0 0.0 0.00 0.00 0.00 48 1013.4
20260509004200 61 204 0.0 0.0 0.00 0.00 0.00 49 1013.4
20260509003658 62 76 0.0 0.0 0.00 0.00 0.00 48 1013.3
20260509003155 63 76 0.0 0.0 0.00 0.00 0.00 46 1013.3
20260509002652 64 81 0.0 0.0 0.00 0.00 0.00 44 1013.3
20260509002149 64 145 0.0 2.0 0.00 0.00 0.00 42 1013.1
20260509001647 64 166 2.0 2.0 0.00 0.00 0.00 43 1013.2
20260509001142 65 181 0.0 1.0 0.00 0.00 0.00 43 1013.1
20260509000641 65 138 0.0 2.0 0.00 0.00 0.00 43 1013.1
20260509000137 65 138 0.0 0.0 0.00 0.00 0.00 44 1013.0
20260508235635 65 74 1.0 2.0 0.00 0.00 0.00 44 1013.0
20260508235131 65 46 1.0 1.0 0.00 0.00 0.00 45 1012.9
20260508234629 66 59 0.0 1.0 0.00 0.00 0.00 46 1012.8
20260508234125 66 71 1.0 1.0 0.00 0.00 0.00 44 1012.9
20260508233624 66 39 0.0 0.0 0.00 0.00 0.00 45 1012.9
20260508233122 66 55 0.0 1.0 0.00 0.00 0.00 43 1012.8
20260508232618 65 64 0.0 0.0 0.00 0.00 0.00 44 1012.8
20260508232115 66 24 0.0 0.0 0.00 0.00 0.00 47 1012.7
20260508231613 67 13 1.0 2.0 0.00 0.00 0.00 40 1012.6
20260508231109 67 21 1.0 2.0 0.00 0.00 0.00 41 1012.6
20260508230606 67 13 1.0 1.0 0.00 0.00 0.00 40 1012.8
20260508225601 68 4 1.0 3.0 0.00 0.00 0.00 39 1012.6
20260508225057 69 347 2.0 3.0 0.00 0.00 0.00 36 1012.8
20260508224555 69 1 1.0 2.0 0.00 0.00 0.00 36 1012.6
20260508224052 69 0 1.0 3.0 0.00 0.00 0.00 36 1012.6
20260508223549 70 75 5.0 6.0 0.00 0.00 0.00 35 1012.6
20260508223046 69 345 1.0 2.0 0.00 0.00 0.00 38 1012.8
20260508222544 69 5 0.0 2.0 0.00 0.00 0.00 37 1012.8
20260508222041 69 330 1.0 2.0 0.00 0.00 0.00 36 1012.8
20260508221537 71 334 1.0 2.0 0.00 0.00 0.00 34 1012.6
20260508221033 70 329 0.0 3.0 0.00 0.00 0.00 35 1012.8
20260508220530 71 41 5.0 8.0 0.00 0.00 0.00 34 1012.7
20260508220026 71 316 2.0 4.0 0.00 0.00 0.00 34 1012.7
20260508215523 70 0 4.0 8.0 0.00 0.00 0.00 37 1012.7
20260508215020 71 16 4.0 7.0 0.00 0.00 0.00 33 1012.6
20260508214517 71 170 0.0 4.0 0.00 0.00 0.00 35 1012.8
20260508214013 71 294 3.0 4.0 0.00 0.00 0.00 35 1012.7
20260508213511 69 289 2.0 4.0 0.00 0.00 0.00 34 1013.0
20260508213007 69 327 3.0 6.0 0.00 0.00 0.00 35 1012.9
20260508212503 69 254 1.0 4.0 0.00 0.00 0.00 33 1012.8
20260508211959 68 300 2.0 8.0 0.00 0.00 0.00 34 1012.9
20260508211455 69 322 4.0 6.0 0.00 0.00 0.00 34 1012.9
20260508210952 70 326 4.0 7.0 0.00 0.00 0.00 36 1012.9
20260508210448 72 312 4.0 9.0 0.00 0.00 0.00 33 1012.8
20260508205945 70 212 3.0 7.0 0.00 0.00 0.00 33 1012.8
20260508205442 69 315 3.0 9.0 0.00 0.00 0.00 34 1012.8
20260508204938 69 340 5.0 8.0 0.00 0.00 0.00 34 1013.1
20260508204436 69 254 3.0 4.0 0.00 0.00 0.00 34 1013.1
20260508203931 69 328 3.0 8.0 0.00 0.00 0.00 34 1013.1
20260508203428 69 332 5.0 9.0 0.00 0.00 0.00 33 1013.0
20260508202923 71 315 2.0 7.0 0.00 0.00 0.00 32 1013.0
20260508202421 72 283 3.0 6.0 0.00 0.00 0.00 31 1013.0
20260508201918 71 238 4.0 7.0 0.00 0.00 0.00 32 1013.1
20260508201414 71 266 4.0 9.0 0.00 0.00 0.00 31 1013.2
20260508200911 71 332 3.0 7.0 0.00 0.00 0.00 35 1013.2
20260508200408 69 287 2.0 6.0 0.00 0.00 0.00 35 1013.2
20260508195903 68 252 3.0 8.0 0.00 0.00 0.00 33 1013.3
20260508195401 68 189 6.0 7.0 0.00 0.00 0.00 34 1013.4
20260508194857 68 239 5.0 8.0 0.00 0.00 0.00 33 1013.4
20260508194354 68 235 2.0 9.0 0.00 0.00 0.00 34 1013.4
20260508193851 70 271 3.0 8.0 0.00 0.00 0.00 32 1013.5
20260508193347 71 314 4.0 8.0 0.00 0.00 0.00 33 1013.4
20260508192844 72 260 4.0 8.0 0.00 0.00 0.00 33 1013.5
20260508192341 71 247 3.0 6.0 0.00 0.00 0.00 31 1013.6
20260508191838 71 275 2.0 6.0 0.00 0.00 0.00 30 1013.7
20260508191335 71 300 1.0 4.0 0.00 0.00 0.00 33 1013.9
20260508190832 68 250 3.0 4.0 0.00 0.00 0.00 34 1014.1
20260508190329 69 278 6.0 10.0 0.00 0.00 0.00 31 1014.1
20260508185825 68 251 5.0 7.0 0.00 0.00 0.00 32 1014.3
20260508185323 68 255 3.0 4.0 0.00 0.00 0.00 34 1014.4
20260508184820 67 260 2.0 4.0 0.00 0.00 0.00 36 1014.5
20260508184317 68 281 2.0 6.0 0.00 0.00 0.00 35 1014.5
20260508183814 69 248 1.0 3.0 0.00 0.00 0.00 36 1014.4
20260508183311 69 209 6.0 11.0 0.00 0.00 0.00 33 1014.4
20260508182806 71 237 2.0 9.0 0.00 0.00 0.00 36 1014.4
20260508182306 72 237 3.0 9.0 0.00 0.00 0.00 32 1014.6
20260508181759 71 260 4.0 9.0 0.00 0.00 0.00 34 1014.6
20260508181256 70 259 3.0 6.0 0.00 0.00 0.00 35 1014.6
20260508180753 71 234 4.0 6.0 0.00 0.00 0.00 36 1014.7
20260508180250 69 358 6.0 15.0 0.00 0.00 0.00 33 1014.7
20260508175746 69 227 5.0 10.0 0.00 0.00 0.00 35 1014.8
20260508175243 71 242 4.0 9.0 0.00 0.00 0.00 31 1014.9
20260508174741 69 211 9.0 13.0 0.00 0.00 0.00 33 1015.1
20260508174238 69 295 4.0 9.0 0.00 0.00 0.00 38 1015.1